[[{"header":{"parameterUnit":"m.s-1","parameterCategory":1,"la1":30.2991,"la2":30.254,"lo1":-89.0895,"lo2":-89.0444,"dy":0.0017,"dx":0.0017,"nx":28,"ny":28,"refTime":"2025-11-30T09:00:00:Z","depth":0,"parameterNumber":2,"parameterNumberName":"U-component_of_WINDS"},"data":[0,0,0,0,0,0,0,0,0,0,0,0,0,0,0,0,0,0,0,0,0,0,0,0,0,0,0,0,0,0,0,0,0,0,0,0,0,0,0,0,0,0,0,0,0,0,0,0,0,0,0,0,0,0,0,0,0,0,-2.9682,-2.9683,0,-2.9789,-2.979,-2.9791,-2.9717,-2.9713,-2.971,-2.9707,-2.9819,-2.9825,-2.9831,0,0,0,0,0,0,0,0,0,0,0,0,0,-2.9417,-2.9422,-2.9682,-2.9684,-2.9685,-2.9789,-2.979,-2.9791,-2.9717,-2.9713,-2.9709,-2.9705,-2.9817,-2.9824,-2.9832,0,0,0,0,0,0,0,0,0,0,0,0,0,-2.9529,-2.9424,-2.9682,-2.966,-2.9659,-2.9788,-2.979,-2.9792,-2.9718,-2.9713,-2.9708,-2.9704,-2.9815,-2.9824,-2.9833,-2.999,0,0,-2.9861,-2.9865,0,0,0,0,0,0,0,0,-2.9523,-2.9539,-2.9662,-2.9662,-2.9661,-2.9734,-2.9738,-2.9858,-2.972,-2.9696,-2.9707,-2.9701,-2.9795,-2.9806,-2.9837,-2.9995,-3.0,-2.9862,-2.9867,-2.9871,-2.9874,0,0,0,0,0,0,0,-2.9515,-2.9534,-2.9724,-2.9664,-2.9664,-2.9646,-2.9656,-2.976,-2.9773,-2.9698,-2.9693,-2.9706,-2.9794,-2.9828,-2.9839,-3.0001,-2.9861,-2.9869,-2.9875,-2.9879,-3.0295,-3.0301,0,0,0,0,0,0,-2.9509,-2.9528,-2.9721,-2.9728,-2.9578,-2.9655,-2.9666,-2.9716,-2.9771,-2.9775,-2.971,-2.9702,-2.9815,-2.9828,-2.9843,-3.0032,-2.9871,-2.988,-2.9885,-3.029,-3.0297,-3.0303,0,0,0,0,0,0,-2.9503,-2.9527,-2.9717,-2.9626,-2.9649,-2.9665,-2.9721,-2.9721,-2.9755,-2.9781,-2.9783,-2.9743,-2.9812,-2.983,-2.9954,-3.0035,-2.9884,-2.9892,-3.0283,-3.0292,-3.03,-3.0411,0,0,0,0,0,0,-2.9496,-2.9525,-2.9585,-2.9628,-2.9654,-2.9826,-2.9726,-2.9726,-2.977,-2.9761,-2.9812,-2.9815,-2.9809,-2.9941,-2.9963,-3.0044,-2.9899,-3.0276,-3.0287,-3.0297,-3.04,-3.0422,-3.044,0,0,0,0,0,-2.9487,-2.9612,-2.9588,-2.9612,-2.9729,-2.9831,-2.9846,-2.9835,-2.9777,-2.9838,-2.9854,-2.9814,-3.0021,-2.9954,-2.9978,-3.0064,-3.0271,-3.0284,-3.0296,-3.0391,-3.0417,-3.044,0,0,0,0,0,0,-2.9578,-2.9617,-2.9591,-2.9734,-2.9779,-2.9818,-2.9894,-2.9863,-2.9927,-2.9916,-2.99,-2.9912,-3.0043,-3.0065,-2.9989,-3.0219,-3.0137,-3.0155,-3.0201,-3.0226,-3.0246,-3.024,-2.9907,0,0,0,0,0,-2.9615,-2.9694,-2.9723,-2.9846,-2.987,-2.9878,-2.9922,-2.991,-2.9957,-2.9976,-3.0002,-3.005,-3.0126,-3.0177,-3.0248,-3.0401,-3.0413,-3.0472,-3.0493,-3.0509,-3.0526,-3.0611,-3.0639,-3.0344,-3.0344,-3.0343,0,0,-2.9692,-2.9723,-2.9774,-2.9866,-2.9899,-2.9983,-2.9895,-2.9986,-3.0049,-2.999,-3.011,-3.013,-3.0183,-3.0323,-3.0386,-3.0346,-3.0609,-3.0525,-3.0538,-3.0546,-3.0627,-3.0655,-3.0679,-3.0352,-3.0351,-3.0349,0,0,-2.9875,-2.9905,-3.0012,-3.0047,-3.0099,-3.0104,-3.0129,-3.0172,-3.0184,-3.0303,-3.0261,-3.0335,-3.0466,-3.0506,-3.0543,-3.0741,-3.0707,-3.0764,-3.0872,-3.0954,-3.0978,-3.0998,-3.1072,-3.1098,-3.078,-3.078,-3.0781,0,-2.9965,-3.0087,-3.0071,-3.0166,-3.0208,-3.0158,-3.0267,-3.0302,-3.0375,-3.0407,-3.0359,-3.0524,-3.0555,-3.0705,-3.0753,-3.0784,-3.0815,-3.076,-3.0975,-3.0996,-3.1015,-3.1085,-3.1112,-3.0787,-3.0786,-3.0786,-3.0785,0,-3.0196,-3.0282,-3.0362,-3.0434,-3.0484,-3.0586,-3.0586,-3.064,-3.0622,-3.0632,-3.0755,-3.079,-3.0869,-3.0903,-3.0887,-3.1051,-3.1025,-3.0977,-3.0895,-3.105,-3.1116,-3.1142,-3.0797,-3.0795,-3.0793,-3.0791,0,0,-3.0443,-3.0503,-3.0533,-3.0565,-3.0619,-3.0685,-3.0784,-3.086,-3.0908,-3.0959,-3.1044,-3.1155,-3.1112,-3.1154,-3.1142,-3.1215,-3.1372,-3.1158,-3.1159,-3.1199,-3.1558,-3.1596,-3.1627,-3.1348,-3.1353,-3.1357,-3.1555,0,-3.0631,-3.0804,-3.0792,-3.0955,-3.1035,-3.0988,-3.1075,-3.1118,-3.1129,-3.1199,-3.1211,-3.1292,-3.1226,-3.1252,-3.1321,-3.1338,-3.1445,-3.1323,-3.143,-3.1434,-3.1422,-3.1661,-3.1702,-3.1886,-3.158,-3.1584,-3.1587,0,-3.0874,-3.0934,-3.1106,-3.1148,-3.1181,-3.126,-3.1329,-3.1395,-3.1443,-3.1446,-3.1494,-3.147,-3.1571,-3.1484,-3.1625,-3.1543,-3.1585,-3.16,-3.1607,-3.1619,-3.1522,-3.1683,-3.1944,-3.1974,-3.1627,-3.1623,-3.1621,0,-3.1041,-3.1164,-3.1283,-3.1312,-3.1363,-3.142,-3.1444,-3.1486,-3.1533,-3.1593,-3.1624,-3.1695,-3.1735,-3.1792,-3.1788,-3.1724,-3.1932,-3.1844,-3.194,-3.1941,-3.1989,-3.1987,-3.2264,-3.2011,-3.201,-3.201,-3.2009,0,-3.1255,-3.1362,-3.1359,-3.1433,-3.1552,-3.1536,-3.1655,-3.1673,-3.1711,-3.1789,-3.1751,-3.1825,-3.1814,-3.1888,-3.1885,-3.2004,-3.2022,-3.2029,-3.2028,-3.2034,-3.2034,-3.2064,-3.2053,-3.2017,-3.2015,-3.2014,-3.2013,0,-3.1462,-3.1464,-3.1591,-3.1629,-3.1641,-3.1728,-3.176,-3.1831,-3.1837,-3.1936,-3.1958,-3.197,-3.2055,-3.2056,-3.2154,-3.2152,-3.2299,-3.2281,-3.2283,-3.2281,-3.2378,-3.237,-3.2688,-3.273,-3.2446,-3.2448,-3.245,0,-3.1601,-3.1682,-3.1729,-3.1777,-3.1805,-3.1883,-3.1931,-3.1918,-3.1969,-3.203,-3.2094,-3.2175,-3.224,-3.2378,-3.2397,-3.2471,-3.2458,-3.2563,-3.2469,-3.2474,-3.2463,-3.246,-3.2469,-3.2583,-3.2587,-3.2589,-3.2591,0,-3.1847,-3.1843,-3.1912,-3.1983,-3.204,-3.2095,-3.2145,-3.2187,-3.218,-3.224,-3.2326,-3.2376,-3.2476,-3.2558,-3.263,-3.2656,-3.2625,-3.262,-3.2647,-3.2657,-3.2656,-3.2661,-3.2337,-3.2614,-3.2612,-3.261,-3.2609,-3.2608,-3.2026,-3.2097,-3.2141,-3.222,-3.2256,-3.2304,-3.2373,-3.2388,-3.2459,-3.2539,-3.2527,-3.2624,-3.267,-3.2764,-3.2796,-3.2872,-3.2836,-3.2874,-3.2884,-3.2895,-3.2907,-3.264,-3.2885,-3.2884,-3.2883,-3.2883,-3.2882,0,-3.2273,-3.2299,-3.2371,-3.2443,-3.2505,-3.2467,-3.252,-3.2576,-3.2661,-3.2706,-3.2771,-3.2871,-3.295,-3.2974,-3.3051,-3.3108,-3.3096,-3.3129,-3.3127,-3.3134,-3.2933,-3.2904,-3.3138,-3.3138,-3.3138,-3.3138,-3.3138,-3.3138,-3.2409,-3.2529,-3.253,-3.2667,-3.2692,-3.2786,-3.2821,-3.2865,-3.2901,-3.3015,-3.308,-3.3094,-3.3132,-3.3211,-3.3283,-3.3288,-3.332,-3.336,-3.336,-3.3173,-3.3148,-3.3123,-3.3096,-3.3366,-3.3367,-3.3554,-3.3556,-3.3557]},{"header":{"parameterUnit":"m.s-1","parameterCategory":1,"la1":30.2991,"la2":30.254,"lo1":-89.0895,"lo2":-89.0444,"dy":0.0017,"dx":0.0017,"nx":28,"ny":28,"refTime":"2025-11-30T09:00:00:Z","depth":0,"parameterNumber":3,"parameterNumberName":"V-component_of_WINDS"},"data":[0,0,0,0,0,0,0,0,0,0,0,0,0,0,0,0,0,0,0,0,0,0,0,0,0,0,0,0,0,0,0,0,0,0,0,0,0,0,0,0,0,0,0,0,0,0,0,0,0,0,0,0,0,0,0,0,0,0,-3.3086,-3.3085,0,-3.3008,-3.3007,-3.3006,-3.2923,-3.2922,-3.2921,-3.292,-3.2836,-3.2834,-3.2833,0,0,0,0,0,0,0,0,0,0,0,0,0,-3.316,-3.3159,-3.3086,-3.3085,-3.3084,-3.3008,-3.3007,-3.3006,-3.2924,-3.2922,-3.2921,-3.292,-3.2836,-3.2835,-3.2833,0,0,0,0,0,0,0,0,0,0,0,0,0,-3.3109,-3.3159,-3.3086,-3.3034,-3.3029,-3.3008,-3.3007,-3.3006,-3.2924,-3.2922,-3.2921,-3.2919,-3.2836,-3.2835,-3.2833,-3.2856,0,0,-3.2828,-3.2827,0,0,0,0,0,0,0,0,-3.3112,-3.3107,-3.3043,-3.3038,-3.3031,-3.2974,-3.3002,-3.2955,-3.2924,-3.2964,-3.292,-3.2918,-3.2883,-3.2877,-3.2866,-3.2852,-3.2849,-3.2827,-3.2826,-3.2826,-3.2825,0,0,0,0,0,0,0,-3.3116,-3.311,-3.3055,-3.3042,-3.3035,-3.3013,-3.3004,-3.2993,-3.2933,-3.296,-3.2954,-3.2946,-3.2879,-3.2868,-3.2863,-3.2848,-3.2827,-3.2826,-3.2825,-3.2824,-3.285,-3.2852,0,0,0,0,0,0,-3.3128,-3.3113,-3.3057,-3.3053,-3.3069,-3.3013,-3.3003,-3.2994,-3.2933,-3.2923,-3.2948,-3.2942,-3.2872,-3.2866,-3.286,-3.2884,-3.2826,-3.2824,-3.2823,-3.2848,-3.285,-3.2852,0,0,0,0,0,0,-3.313,-3.3124,-3.306,-3.3081,-3.3071,-3.3014,-3.3004,-3.2993,-3.2982,-3.2924,-3.2913,-3.2947,-3.287,-3.2863,-3.2858,-3.288,-3.2823,-3.2822,-3.2846,-3.2849,-3.2851,-3.2933,0,0,0,0,0,0,-3.3132,-3.3125,-3.3134,-3.3082,-3.3071,-3.3062,-3.3005,-3.2993,-3.298,-3.2972,-3.2921,-3.291,-3.2868,-3.2862,-3.2857,-3.2877,-3.282,-3.2844,-3.2847,-3.285,-3.2928,-3.2938,-3.2946,0,0,0,0,0,-3.3135,-3.3159,-3.3135,-3.3129,-3.3081,-3.3063,-3.3056,-3.3009,-3.2982,-3.299,-3.2953,-3.2912,-3.2879,-3.2862,-3.2856,-3.2875,-3.2842,-3.2846,-3.285,-3.2924,-3.2936,-3.2946,0,0,0,0,0,0,-3.3213,-3.3151,-3.3124,-3.3132,-3.3104,-3.3049,-3.3058,-3.3023,-3.3001,-3.2994,-3.2935,-3.2924,-3.2927,-3.29,-3.2883,-3.2895,-3.2855,-3.2858,-3.2913,-3.2924,-3.2933,-3.2939,-3.2819,0,0,0,0,0,-3.3232,-3.3224,-3.3169,-3.3181,-3.3169,-3.3116,-3.3106,-3.3072,-3.304,-3.3027,-3.299,-3.2959,-3.2941,-3.2931,-3.2911,-3.2923,-3.2911,-3.2934,-3.2943,-3.2951,-3.2954,-3.2959,-3.2969,-3.2865,-3.2865,-3.2865,0,0,-3.3269,-3.3234,-3.3232,-3.3196,-3.317,-3.3162,-3.3107,-3.31,-3.3093,-3.3025,-3.302,-3.2992,-3.2953,-3.2958,-3.2958,-3.2936,-3.298,-3.2956,-3.2963,-3.2962,-3.2964,-3.2974,-3.2983,-3.2868,-3.2867,-3.2867,0,0,-3.3334,-3.3307,-3.3314,-3.329,-3.3252,-3.3217,-3.3219,-3.317,-3.3149,-3.3143,-3.3093,-3.3083,-3.3054,-3.3029,-3.3012,-3.3068,-3.303,-3.3063,-3.3112,-3.3117,-3.3126,-3.3132,-3.3153,-3.3161,-3.3067,-3.3067,-3.3067,0,-3.3385,-3.3372,-3.3322,-3.3319,-3.3305,-3.3245,-3.3252,-3.323,-3.3187,-3.3178,-3.3155,-3.3118,-3.3087,-3.3086,-3.31,-3.3088,-3.3088,-3.3069,-3.3129,-3.3135,-3.3141,-3.316,-3.3168,-3.3071,-3.3071,-3.307,-3.307,0,-3.3437,-3.3429,-3.3439,-3.3402,-3.3388,-3.339,-3.334,-3.3332,-3.3299,-3.3266,-3.3261,-3.3223,-3.3195,-3.3192,-3.3159,-3.3185,-3.3173,-3.314,-3.3098,-3.3156,-3.3173,-3.318,-3.3078,-3.3076,-3.3075,-3.3074,0,0,-3.3548,-3.3484,-3.3489,-3.3472,-3.3426,-3.3418,-3.3417,-3.3392,-3.3386,-3.3358,-3.3356,-3.3333,-3.3303,-3.3284,-3.3248,-3.3253,-3.3301,-3.3219,-3.3217,-3.3236,-3.3328,-3.3354,-3.3363,-3.3275,-3.3276,-3.3277,-3.3332,0,-3.3605,-3.3602,-3.3557,-3.3566,-3.3558,-3.3501,-3.3501,-3.3472,-3.3442,-3.3429,-3.3394,-3.338,-3.334,-3.3329,-3.3331,-3.3294,-3.3318,-3.329,-3.3271,-3.3271,-3.3284,-3.3372,-3.3399,-3.3452,-3.3338,-3.3339,-3.3339,0,-3.3671,-3.365,-3.3659,-3.3614,-3.3609,-3.3609,-3.3583,-3.3572,-3.3538,-3.3515,-3.3495,-3.3455,-3.345,-3.341,-3.3402,-3.3384,-3.3373,-3.3354,-3.3355,-3.3352,-3.3309,-3.3372,-3.3468,-3.3477,-3.3349,-3.3348,-3.3348,0,-3.3753,-3.3726,-3.3728,-3.3715,-3.3662,-3.3664,-3.3641,-3.3606,-3.3594,-3.357,-3.3562,-3.3537,-3.3524,-3.3505,-3.3459,-3.3434,-3.3456,-3.3412,-3.3437,-3.3438,-3.3444,-3.3444,-3.3541,-3.3437,-3.3437,-3.3436,-3.3436,0,-3.3821,-3.3829,-3.3764,-3.3765,-3.3772,-3.372,-3.3728,-3.37,-3.3669,-3.3664,-3.3612,-3.3607,-3.3546,-3.3534,-3.3497,-3.3497,-3.3491,-3.3472,-3.3462,-3.3477,-3.348,-3.347,-3.3465,-3.3438,-3.3438,-3.3438,-3.3437,0,-3.3914,-3.387,-3.3869,-3.382,-3.3808,-3.3815,-3.3772,-3.3771,-3.3738,-3.3731,-3.3726,-3.3674,-3.3657,-3.3609,-3.3579,-3.3555,-3.3565,-3.3546,-3.3577,-3.3571,-3.3598,-3.3597,-3.3692,-3.3702,-3.3592,-3.3593,-3.3594,0,-3.3961,-3.3966,-3.3918,-3.3911,-3.3892,-3.3881,-3.3869,-3.3818,-3.3807,-3.377,-3.3773,-3.3753,-3.3734,-3.371,-3.3668,-3.3645,-3.3626,-3.3661,-3.3622,-3.3637,-3.3627,-3.3628,-3.3628,-3.367,-3.3671,-3.3672,-3.3673,0,-3.4049,-3.4028,-3.4013,-3.3992,-3.3979,-3.3959,-3.3936,-3.3933,-3.3876,-3.3866,-3.385,-3.3835,-3.3806,-3.3787,-3.3758,-3.3733,-3.3694,-3.3686,-3.369,-3.3706,-3.3724,-3.3715,-3.3601,-3.3684,-3.3683,-3.3682,-3.3682,-3.3681,-3.412,-3.4123,-3.409,-3.4075,-3.4053,-3.4033,-3.403,-3.3997,-3.3983,-3.3957,-3.3927,-3.3914,-3.3879,-3.3837,-3.3815,-3.3803,-3.3782,-3.3789,-3.379,-3.3793,-3.38,-3.3726,-3.3798,-3.3797,-3.3797,-3.3797,-3.3796,0,-3.4207,-3.4183,-3.4171,-3.4141,-3.413,-3.4095,-3.4068,-3.4061,-3.4051,-3.4023,-3.4006,-3.3987,-3.3968,-3.3925,-3.3902,-3.3901,-3.3882,-3.3897,-3.3896,-3.3891,-3.382,-3.3819,-3.3912,-3.3912,-3.3912,-3.3912,-3.3912,-3.3912,-3.4251,-3.4253,-3.4228,-3.4218,-3.4194,-3.4182,-3.417,-3.4151,-3.4129,-3.4111,-3.4095,-3.4068,-3.4034,-3.4008,-3.3989,-3.3977,-3.3971,-3.3991,-3.3973,-3.3907,-3.3896,-3.3886,-3.3885,-3.399,-3.399,-3.4046,-3.4046,-3.4047]}]]